Location: Unspecified
(48.8656°N, 0.0000°E)
Time: 18:25:24
(UTC+00:00)

Vanguard 1 Rocket - Pass Details

Date: 24 June 2019
Orbit: 652 x 4224 km, 34.3° (Epoch: 22 August)

Event Time Altitude Azimuth Distance (km) Brightness Sun altitude
Rises 17:29:52 0° 241° (WSW) 7,732 12.9 22.6°
Reaches altitude 10° 17:36:16 10° 235° (SW) 6,202 12.4 21.6°
Maximum altitude 17:51:14 37° 177° (S) 2,938 10.0 19.2°
Drops below altitude 10° 17:59:40 10° 114° (ESE) 3,521 9.9 17.9°
Sets 18:02:13 0° 105° (ESE) 4,167 10.2 17.5°
